| time (UTC) | temp C | wind direction | speed KPH | gust KPH | rain 1hr cm | rain 24hr cm | rain mn cm | humidity % | barometer mb |
| 20260505224601 | 5 | 348 | 9.7 | 22.5 | 0.00 | 0.00 | 0.00 | 52 | 1013.2 |
| 20260505224100 | 6 | 283 | 8.0 | 25.7 | 0.00 | 0.00 | 0.00 | 51 | 1013.1 |
| 20260505223559 | 6 | 319 | 16.1 | 25.7 | 0.00 | 0.00 | 0.00 | 50 | 1013.2 |
| 20260505223059 | 6 | 329 | 11.3 | 25.7 | 0.00 | 0.00 | 0.00 | 51 | 1013.1 |
| 20260505222559 | 6 | 284 | 14.5 | 25.7 | 0.00 | 0.00 | 0.00 | 50 | 1013.1 |
| 20260505222059 | 6 | 303 | 17.7 | 27.4 | 0.00 | 0.00 | 0.00 | 52 | 1013.1 |
| 20260505221601 | 6 | 344 | 17.7 | 27.4 | 0.00 | 0.00 | 0.00 | 51 | 1013.1 |
| 20260505221058 | 5 | 333 | 16.1 | 27.4 | 0.00 | 0.00 | 0.00 | 51 | 1013.1 |
| 20260505220558 | 5 | 325 | 17.7 | 27.4 | 0.00 | 0.00 | 0.00 | 51 | 1013.1 |
| 20260505220105 | 5 | 326 | 12.9 | 25.7 | 0.00 | 0.00 | 0.00 | 51 | 1013.0 |
| 20260505215558 | 6 | 276 | 11.3 | 25.7 | 0.00 | 0.00 | 0.00 | 51 | 1013.1 |
| 20260505215058 | 6 | 317 | 14.5 | 27.4 | 0.00 | 0.00 | 0.00 | 51 | 1013.1 |
| 20260505214605 | 6 | 331 | 9.7 | 27.4 | 0.00 | 0.00 | 0.00 | 51 | 1013.1 |
| 20260505214058 | 6 | 326 | 12.9 | 22.5 | 0.00 | 0.00 | 0.00 | 51 | 1013.1 |
| 20260505213556 | 6 | 350 | 6.4 | 22.5 | 0.00 | 0.00 | 0.00 | 51 | 1013.1 |
| 20260505213103 | 6 | 328 | 9.7 | 27.4 | 0.00 | 0.00 | 0.00 | 52 | 1013.1 |
| 20260505212557 | 5 | 288 | 11.3 | 29.0 | 0.00 | 0.00 | 0.00 | 51 | 1013.0 |
| 20260505212056 | 6 | 336 | 17.7 | 32.2 | 0.00 | 0.00 | 0.00 | 51 | 1013.0 |
| 20260505211602 | 6 | 338 | 17.7 | 32.2 | 0.00 | 0.00 | 0.00 | 50 | 1013.1 |
| 20260505211100 | 6 | 328 | 14.5 | 24.1 | 0.00 | 0.00 | 0.00 | 51 | 1013.0 |
| 20260505210556 | 6 | 309 | 12.9 | 33.8 | 0.00 | 0.00 | 0.00 | 51 | 1013.0 |
| 20260505210056 | 6 | 302 | 16.1 | 35.4 | 0.00 | 0.00 | 0.00 | 50 | 1013.0 |
| 20260505205556 | 6 | 329 | 14.5 | 35.4 | 0.00 | 0.00 | 0.00 | 51 | 1013.0 |
| 20260505205056 | 6 | 330 | 17.7 | 29.0 | 0.00 | 0.00 | 0.00 | 50 | 1012.9 |
| 20260505204600 | 6 | 324 | 14.5 | 32.2 | 0.00 | 0.00 | 0.00 | 51 | 1012.9 |
| 20260505204056 | 6 | 322 | 20.9 | 32.2 | 0.00 | 0.00 | 0.00 | 50 | 1013.0 |
| 20260505203556 | 6 | 340 | 16.1 | 29.0 | 0.00 | 0.00 | 0.00 | 51 | 1012.9 |
| 20260505203056 | 6 | 309 | 12.9 | 27.4 | 0.00 | 0.00 | 0.00 | 50 | 1012.9 |
| 20260505202553 | 6 | 333 | 9.7 | 25.7 | 0.00 | 0.00 | 0.00 | 52 | 1012.9 |
| 20260505202053 | 6 | 343 | 17.7 | 25.7 | 0.00 | 0.00 | 0.00 | 51 | 1013.0 |
| 20260505201553 | 6 | 344 | 9.7 | 30.6 | 0.00 | 0.00 | 0.00 | 52 | 1013.0 |
| 20260505201052 | 6 | 286 | 14.5 | 30.6 | 0.00 | 0.00 | 0.00 | 51 | 1013.1 |
| 20260505200551 | 6 | 292 | 6.4 | 38.6 | 0.00 | 0.00 | 0.00 | 52 | 1013.1 |
| 20260505200050 | 5 | 312 | 17.7 | 38.6 | 0.00 | 0.00 | 0.00 | 53 | 1013.1 |
| 20260505195550 | 5 | 337 | 12.9 | 27.4 | 0.00 | 0.00 | 0.00 | 53 | 1013.1 |
| 20260505195049 | 5 | 323 | 12.9 | 25.7 | 0.00 | 0.00 | 0.00 | 54 | 1013.1 |
| 20260505194550 | 5 | 320 | 11.3 | 27.4 | 0.00 | 0.00 | 0.00 | 53 | 1013.2 |
| 20260505194049 | 5 | 315 | 17.7 | 27.4 | 0.00 | 0.00 | 0.00 | 53 | 1013.1 |
| 20260505193548 | 5 | 299 | 11.3 | 24.1 | 0.00 | 0.00 | 0.00 | 53 | 1013.1 |
| 20260505193052 | 5 | 344 | 9.7 | 25.7 | 0.00 | 0.00 | 0.00 | 53 | 1013.0 |
| 20260505192548 | 5 | 265 | 8.0 | 33.8 | 0.00 | 0.00 | 0.00 | 53 | 1013.1 |
| 20260505192048 | 5 | 298 | 14.5 | 33.8 | 0.00 | 0.00 | 0.00 | 54 | 1013.0 |
| 20260505191556 | 5 | 343 | 14.5 | 27.4 | 0.00 | 0.00 | 0.00 | 55 | 1013.0 |
| 20260505191048 | 5 | 316 | 16.1 | 27.4 | 0.00 | 0.00 | 0.00 | 55 | 1013.1 |
| 20260505190550 | 4 | 319 | 8.0 | 25.7 | 0.00 | 0.00 | 0.00 | 55 | 1013.1 |
| 20260505190047 | 5 | 360 | 12.9 | 27.4 | 0.00 | 0.00 | 0.00 | 56 | 1013.1 |
| 20260505185547 | 5 | 271 | 9.7 | 27.4 | 0.00 | 0.00 | 0.00 | 54 | 1013.1 |
| 20260505185047 | 5 | 344 | 11.3 | 27.4 | 0.00 | 0.00 | 0.00 | 54 | 1013.1 |
| 20260505184547 | 5 | 351 | 12.9 | 25.7 | 0.00 | 0.00 | 0.00 | 54 | 1013.1 |
| 20260505184047 | 5 | 317 | 12.9 | 29.0 | 0.00 | 0.00 | 0.00 | 54 | 1013.1 |
| 20260505183548 | 4 | 314 | 16.1 | 29.0 | 0.00 | 0.00 | 0.00 | 53 | 1013.0 |
| 20260505183047 | 5 | 343 | 11.3 | 25.7 | 0.00 | 0.00 | 0.00 | 53 | 1013.0 |
| 20260505182545 | 5 | 342 | 11.3 | 27.4 | 0.00 | 0.00 | 0.00 | 54 | 1013.0 |
| 20260505182049 | 5 | 273 | 11.3 | 30.6 | 0.00 | 0.00 | 0.00 | 54 | 1013.0 |
| 20260505181545 | 4 | 267 | 14.5 | 33.8 | 0.00 | 0.00 | 0.00 | 54 | 1012.9 |
| 20260505181045 | 4 | 292 | 16.1 | 33.8 | 0.00 | 0.00 | 0.00 | 54 | 1012.9 |
| 20260505180544 | 4 | 307 | 14.5 | 32.2 | 0.00 | 0.00 | 0.00 | 55 | 1012.9 |
| 20260505180052 | 4 | 355 | 16.1 | 32.2 | 0.00 | 0.00 | 0.00 | 54 | 1012.8 |
| 20260505175544 | 4 | 315 | 19.3 | 33.8 | 0.00 | 0.00 | 0.00 | 54 | 1012.8 |
| 20260505175047 | 4 | 321 | 16.1 | 33.8 | 0.00 | 0.00 | 0.00 | 54 | 1012.8 |
| 20260505174605 | 5 | 296 | 14.5 | 32.2 | 0.00 | 0.00 | 0.00 | 54 | 1012.8 |
| 20260505174044 | 5 | 281 | 19.3 | 37.0 | 0.00 | 0.00 | 0.00 | 54 | 1012.7 |
| 20260505173543 | 5 | 298 | 19.3 | 37.0 | 0.00 | 0.00 | 0.00 | 53 | 1012.5 |
| 20260505173044 | 5 | 177 | 17.7 | 33.8 | 0.00 | 0.00 | 0.00 | 53 | 1012.5 |
| 20260505172541 | 5 | 301 | 12.9 | 33.8 | 0.00 | 0.00 | 0.00 | 53 | 1012.4 |
| 20260505172042 | 4 | 9 | 16.1 | 33.8 | 0.00 | 0.00 | 0.00 | 54 | 1012.4 |
| 20260505171541 | 5 | 223 | 12.9 | 35.4 | 0.00 | 0.00 | 0.00 | 54 | 1012.2 |
| 20260505171041 | 5 | 17 | 9.7 | 35.4 | 0.00 | 0.00 | 0.00 | 53 | 1012.4 |
| 20260505170539 | 5 | 313 | 14.5 | 33.8 | 0.00 | 0.00 | 0.00 | 54 | 1012.3 |
| 20260505170048 | 5 | 337 | 17.7 | 35.4 | 0.00 | 0.00 | 0.00 | 55 | 1012.2 |
| 20260505165537 | 5 | 292 | 12.9 | 35.4 | 0.00 | 0.00 | 0.00 | 55 | 1012.2 |
| 20260505165037 | 5 | 319 | 17.7 | 27.4 | 0.00 | 0.00 | 0.00 | 56 | 1012.3 |
| 20260505164539 | 4 | 333 | 11.3 | 30.6 | 0.00 | 0.00 | 0.00 | 56 | 1012.3 |
| 20260505164039 | 4 | 291 | 20.9 | 30.6 | 0.00 | 0.00 | 0.00 | 56 | 1012.5 |
| 20260505163535 | 4 | 312 | 12.9 | 30.6 | 0.00 | 0.00 | 0.00 | 57 | 1012.4 |
| 20260505163039 | 5 | 321 | 16.1 | 30.6 | 0.00 | 0.00 | 0.00 | 57 | 1012.4 |
| 20260505162534 | 4 | 330 | 12.9 | 29.0 | 0.00 | 0.00 | 0.00 | 57 | 1012.3 |
| 20260505162034 | 4 | 331 | 12.9 | 32.2 | 0.00 | 0.00 | 0.00 | 56 | 1012.4 |
| 20260505161533 | 4 | 321 | 12.9 | 35.4 | 0.00 | 0.00 | 0.00 | 57 | 1012.3 |
| 20260505161035 | 4 | 261 | 16.1 | 35.4 | 0.00 | 0.00 | 0.00 | 57 | 1012.3 |
| 20260505160533 | 4 | 300 | 16.1 | 32.2 | 0.00 | 0.00 | 0.00 | 56 | 1012.2 |
| 20260505153034 | 4 | 284 | 14.5 | 30.6 | 0.00 | 0.00 | 0.00 | 60 | 1011.9 |
| 20260505152529 | 4 | 342 | 16.1 | 30.6 | 0.00 | 0.00 | 0.00 | 60 | 1011.8 |
| 20260505152026 | 4 | 313 | 12.9 | 32.2 | 0.00 | 0.00 | 0.00 | 60 | 1011.6 |
| 20260505151529 | 4 | 11 | 12.9 | 25.7 | 0.00 | 0.00 | 0.00 | 60 | 1011.5 |
| 20260505151025 | 4 | 319 | 16.1 | 25.7 | 0.00 | 0.00 | 0.00 | 60 | 1011.4 |
| 20260505150524 | 4 | 313 | 11.3 | 25.7 | 0.00 | 0.00 | 0.00 | 61 | 1011.4 |
| 20260505140511 | 2 | 336 | 9.7 | 20.9 | 0.00 | 0.00 | 0.00 | 66 | 1011.1 |
| 20260505124554 | 1 | 21 | 6.4 | 17.7 | 0.00 | 0.00 | 0.00 | 69 | 1010.2 |
| 20260505124054 | 1 | 12 | 4.8 | 16.1 | 0.00 | 0.00 | 0.00 | 70 | 1010.1 |
| 20260505123553 | 1 | 23 | 6.4 | 16.1 | 0.00 | 0.00 | 0.00 | 69 | 1010.0 |
| 20260505123109 | 1 | 13 | 6.4 | 12.9 | 0.00 | 0.00 | 0.00 | 70 | 1010.0 |
| 20260505122551 | 1 | 11 | 6.4 | 16.1 | 0.00 | 0.00 | 0.00 | 71 | 1009.9 |
| 20260505122049 | 0 | 9 | 6.4 | 16.1 | 0.00 | 0.00 | 0.00 | 72 | 1009.8 |
| 20260505121548 | 0 | 360 | 4.8 | 14.5 | 0.00 | 0.00 | 0.00 | 74 | 1009.7 |
| 20260505121047 | 0 | 5 | 4.8 | 12.9 | 0.00 | 0.00 | 0.00 | 75 | 1009.7 |
| 20260505120547 | 0 | 331 | 1.6 | 9.7 | 0.00 | 0.00 | 0.00 | 76 | 1009.6 |
| 20260505120047 | 0 | 331 | 1.6 | 8.0 | 0.00 | 0.00 | 0.00 | 77 | 1009.6 |
| 20260505115545 | 0 | 331 | 0.0 | 4.8 | 0.00 | 0.00 | 0.00 | 77 | 1009.5 |
| 20260505115045 | 0 | 331 | 3.2 | 4.8 | 0.00 | 0.00 | 0.00 | 77 | 1009.4 |
| 20260505114606 | 0 | 331 | 0.0 | 4.8 | 0.00 | 0.00 | 0.00 | 78 | 1009.4 |
| 20260505114045 | 0 | 331 | 0.0 | 6.4 | 0.00 | 0.00 | 0.00 | 79 | 1009.4 |
| 20260505113546 | 0 | 331 | 0.0 | 6.4 | 0.00 | 0.00 | 0.00 | 79 | 1009.5 |
| 20260505113043 | 0 | 331 | 1.6 | 8.0 | 0.00 | 0.00 | 0.00 | 80 | 1009.4 |
| 20260505112542 | 0 | 331 | 1.6 | 8.0 | 0.00 | 0.00 | 0.00 | 81 | 1009.4 |
| 20260505112043 | 0 | 331 | 3.2 | 8.0 | 0.00 | 0.00 | 0.00 | 81 | 1009.4 |
| 20260505111555 | 0 | 331 | 3.2 | 8.0 | 0.00 | 0.00 | 0.00 | 81 | 1009.4 |
| 20260505111043 | 0 | 332 | 3.2 | 6.4 | 0.00 | 0.00 | 0.00 | 82 | 1009.4 |
| 20260505110543 | 0 | 332 | 0.0 | 4.8 | 0.00 | 0.00 | 0.00 | 82 | 1009.3 |
| 20260505102037 | 0 | 332 | 0.0 | 0.0 | 0.00 | 0.00 | 0.00 | 82 | 1009.4 |
| 20260505101537 | 0 | 332 | 0.0 | 0.0 | 0.00 | 0.00 | 0.00 | 82 | 1009.3 |
| 20260505101038 | 0 | 332 | 0.0 | 0.0 | 0.00 | 0.00 | 0.00 | 82 | 1009.3 |
| 20260505100537 | 0 | 332 | 0.0 | 0.0 | 0.00 | 0.00 | 0.00 | 82 | 1009.3 |
| 20260505100037 | 0 | 332 | 0.0 | 0.0 | 0.00 | 0.00 | 0.00 | 82 | 1009.4 |
| 20260505095536 | 0 | 332 | 0.0 | 0.0 | 0.00 | 0.00 | 0.00 | 82 | 1009.3 |
| 20260505095038 | 0 | 332 | 0.0 | 0.0 | 0.00 | 0.00 | 0.00 | 82 | 1009.3 |
| 20260505094539 | 0 | 332 | 0.0 | 0.0 | 0.00 | 0.00 | 0.00 | 82 | 1009.4 |
| 20260505094036 | 0 | 332 | 0.0 | 0.0 | 0.00 | 0.00 | 0.00 | 82 | 1009.3 |
| 20260505093534 | 0 | 332 | 0.0 | 0.0 | 0.00 | 0.00 | 0.00 | 82 | 1009.2 |
| 20260505093036 | 0 | 332 | 0.0 | 0.0 | 0.00 | 0.00 | 0.00 | 82 | 1009.3 |
| 20260505092534 | 0 | 332 | 0.0 | 0.0 | 0.00 | 0.00 | 0.00 | 82 | 1009.1 |
| 20260505092034 | 0 | 332 | 0.0 | 4.8 | 0.00 | 0.00 | 0.00 | 81 | 1009.1 |
| 20260505091535 | 0 | 332 | 1.6 | 4.8 | 0.00 | 0.00 | 0.00 | 81 | 1009.2 |
| 20260505091031 | 0 | 332 | 0.0 | 4.8 | 0.00 | 0.00 | 0.00 | 81 | 1009.0 |
| 20260505090533 | 0 | 332 | 1.6 | 4.8 | 0.00 | 0.00 | 0.00 | 80 | 1009.0 |
| 20260505090036 | 0 | 332 | 1.6 | 6.4 | 0.00 | 0.00 | 0.00 | 80 | 1008.9 |
| 20260505085530 | 0 | 332 | 1.6 | 6.4 | 0.00 | 0.00 | 0.00 | 80 | 1008.9 |
| 20260505085030 | 0 | 332 | 1.6 | 6.4 | 0.00 | 0.00 | 0.00 | 80 | 1008.8 |
| 20260505084531 | 0 | 332 | 1.6 | 6.4 | 0.00 | 0.00 | 0.00 | 80 | 1008.7 |
| 20260505084029 | 0 | 332 | 0.0 | 4.8 | 0.00 | 0.00 | 0.00 | 80 | 1008.9 |
| 20260505083528 | 0 | 332 | 1.6 | 4.8 | 0.00 | 0.00 | 0.00 | 80 | 1008.9 |
| 20260505083040 | 0 | 332 | 0.0 | 3.2 | 0.00 | 0.00 | 0.00 | 80 | 1008.7 |
| 20260505082528 | 0 | 332 | 0.0 | 3.2 | 0.00 | 0.00 | 0.00 | 80 | 1008.7 |
| 20260505082028 | 0 | 332 | 0.0 | 4.8 | 0.00 | 0.00 | 0.00 | 80 | 1008.7 |
| 20260505081533 | 0 | 332 | 1.6 | 8.0 | 0.00 | 0.00 | 0.00 | 80 | 1008.9 |
| 20260505081028 | 0 | 332 | 3.2 | 8.0 | 0.00 | 0.00 | 0.00 | 80 | 1008.8 |
| 20260505080527 | 0 | 336 | 3.2 | 6.4 | 0.00 | 0.00 | 0.00 | 79 | 1008.7 |
| 20260505080038 | 0 | 336 | 3.2 | 6.4 | 0.00 | 0.00 | 0.00 | 79 | 1008.7 |
| 20260505075526 | 0 | 336 | 1.6 | 4.8 | 0.00 | 0.00 | 0.00 | 78 | 1008.8 |
| 20260505075026 | 0 | 336 | 1.6 | 4.8 | 0.00 | 0.00 | 0.00 | 78 | 1008.8 |
| 20260505074526 | 0 | 336 | 1.6 | 6.4 | 0.00 | 0.00 | 0.00 | 77 | 1008.8 |
| 20260505074026 | 0 | 338 | 3.2 | 6.4 | 0.00 | 0.00 | 0.00 | 76 | 1008.8 |
| 20260505073523 | 0 | 338 | 1.6 | 6.4 | 0.00 | 0.00 | 0.00 | 74 | 1008.7 |
| 20260505073023 | 0 | 338 | 1.6 | 4.8 | 0.00 | 0.00 | 0.00 | 73 | 1008.7 |
| 20260505072522 | 0 | 338 | 0.0 | 3.2 | 0.00 | 0.00 | 0.00 | 73 | 1008.7 |
| 20260505072021 | 0 | 338 | 0.0 | 4.8 | 0.00 | 0.00 | 0.00 | 72 | 1008.6 |
| 20260505071521 | 0 | 338 | 1.6 | 4.8 | 0.00 | 0.00 | 0.00 | 72 | 1008.7 |
| 20260505071020 | 0 | 338 | 1.6 | 4.8 | 0.00 | 0.00 | 0.00 | 71 | 1008.6 |
| 20260505070521 | 0 | 338 | 1.6 | 4.8 | 0.00 | 0.00 | 0.00 | 71 | 1008.6 |
| 20260505070019 | 0 | 338 | 1.6 | 4.8 | 0.00 | 0.00 | 0.00 | 70 | 1008.6 |
| 20260505065520 | 1 | 338 | 3.2 | 8.0 | 0.00 | 0.00 | 0.00 | 70 | 1008.6 |
| 20260505065017 | 1 | 338 | 3.2 | 8.0 | 0.00 | 0.00 | 0.00 | 69 | 1008.6 |
| 20260505064517 | 1 | 338 | 3.2 | 6.4 | 0.00 | 0.00 | 0.00 | 69 | 1008.6 |
| 20260505064018 | 1 | 338 | 3.2 | 8.0 | 0.00 | 0.00 | 0.00 | 68 | 1008.5 |
| 20260505063516 | 1 | 338 | 3.2 | 8.0 | 0.00 | 0.00 | 0.00 | 68 | 1008.5 |
| 20260505063015 | 1 | 339 | 3.2 | 8.0 | 0.00 | 0.00 | 0.00 | 69 | 1008.6 |
| 20260505062515 | 1 | 339 | 3.2 | 8.0 | 0.00 | 0.00 | 0.00 | 69 | 1008.6 |
| 20260505062014 | 1 | 340 | 3.2 | 9.7 | 0.00 | 0.00 | 0.00 | 70 | 1008.5 |
| 20260505061527 | 1 | 340 | 1.6 | 9.7 | 0.00 | 0.00 | 0.00 | 70 | 1008.5 |
| 20260505061014 | 1 | 341 | 3.2 | 12.9 | 0.00 | 0.00 | 0.00 | 70 | 1008.4 |
| 20260505060513 | 1 | 342 | 4.8 | 12.9 | 0.00 | 0.00 | 0.00 | 71 | 1008.6 |
| 20260505060013 | 1 | 342 | 1.6 | 9.7 | 0.00 | 0.00 | 0.00 | 71 | 1008.5 |
| 20260505055512 | 1 | 346 | 1.6 | 8.0 | 0.00 | 0.00 | 0.00 | 71 | 1008.5 |
| 20260505055011 | 1 | 349 | 3.2 | 9.7 | 0.00 | 0.00 | 0.00 | 71 | 1008.4 |
| 20260505054510 | 1 | 350 | 4.8 | 12.9 | 0.00 | 0.00 | 0.00 | 70 | 1008.3 |
| 20260505054012 | 2 | 350 | 4.8 | 12.9 | 0.00 | 0.00 | 0.00 | 70 | 1008.3 |
| 20260505053512 | 2 | 350 | 6.4 | 17.7 | 0.00 | 0.00 | 0.00 | 70 | 1008.3 |
| 20260505053007 | 2 | 345 | 4.8 | 17.7 | 0.00 | 0.00 | 0.00 | 71 | 1008.4 |
| 20260505052508 | 2 | 338 | 8.0 | 16.1 | 0.00 | 0.00 | 0.00 | 71 | 1008.3 |
| 20260505052005 | 2 | 360 | 9.7 | 16.1 | 0.00 | 0.00 | 0.00 | 70 | 1008.3 |
| 20260505051503 | 2 | 348 | 9.7 | 17.7 | 0.00 | 0.00 | 0.00 | 71 | 1008.2 |
| 20260505051003 | 2 | 355 | 6.4 | 17.7 | 0.00 | 0.00 | 0.00 | 71 | 1008.2 |
| 20260505050504 | 2 | 336 | 4.8 | 17.7 | 0.00 | 0.00 | 0.00 | 72 | 1008.2 |
| 20260505041613 | 3 | 34 | 9.7 | 25.7 | 0.00 | 0.00 | 0.00 | 75 | 1007.9 |
| 20260505041054 | 3 | 337 | 11.3 | 25.7 | 0.00 | 0.00 | 0.00 | 75 | 1007.8 |
| 20260505040553 | 3 | 10 | 14.5 | 25.7 | 0.00 | 0.00 | 0.00 | 73 | 1007.8 |
| 20260505040052 | 3 | 33 | 9.7 | 24.1 | 0.00 | 0.00 | 0.00 | 72 | 1007.7 |
| 20260505035552 | 4 | 329 | 14.5 | 24.1 | 0.00 | 0.00 | 0.00 | 71 | 1007.6 |
| 20260505035052 | 4 | 323 | 9.7 | 16.1 | 0.00 | 0.00 | 0.00 | 71 | 1007.6 |
| 20260505034549 | 4 | 309 | 4.8 | 17.7 | 0.00 | 0.00 | 0.00 | 70 | 1007.6 |
| 20260505034052 | 4 | 340 | 9.7 | 19.3 | 0.00 | 0.00 | 0.00 | 70 | 1007.6 |
| 20260505033547 | 4 | 341 | 11.3 | 24.1 | 0.00 | 0.00 | 0.00 | 70 | 1007.5 |
| 20260505033046 | 4 | 323 | 12.9 | 24.1 | 0.00 | 0.00 | 0.00 | 69 | 1007.4 |
| 20260505032550 | 4 | 302 | 12.9 | 20.9 | 0.00 | 0.00 | 0.00 | 69 | 1007.4 |
| 20260505032045 | 4 | 330 | 11.3 | 20.9 | 0.00 | 0.00 | 0.00 | 68 | 1007.3 |
| 20260505031549 | 4 | 343 | 8.0 | 24.1 | 0.00 | 0.00 | 0.00 | 68 | 1007.2 |
| 20260505031048 | 5 | 323 | 9.7 | 24.1 | 0.00 | 0.00 | 0.00 | 67 | 1007.3 |
| 20260505030548 | 5 | 335 | 8.0 | 20.9 | 0.00 | 0.00 | 0.00 | 67 | 1007.2 |
| 20260505030044 | 5 | 323 | 11.3 | 20.9 | 0.00 | 0.00 | 0.00 | 67 | 1007.1 |
| 20260505025543 | 5 | 348 | 11.3 | 25.7 | 0.00 | 0.00 | 0.00 | 66 | 1007.2 |
| 20260505025041 | 5 | 338 | 12.9 | 25.7 | 0.00 | 0.00 | 0.00 | 66 | 1007.1 |
| 20260505024545 | 5 | 317 | 9.7 | 27.4 | 0.00 | 0.00 | 0.00 | 66 | 1007.0 |
| 20260505024039 | 5 | 339 | 16.1 | 27.4 | 0.00 | 0.00 | 0.00 | 66 | 1006.9 |
| 20260505023538 | 5 | 343 | 4.8 | 29.0 | 0.00 | 0.00 | 0.00 | 66 | 1006.9 |
| 20260505023044 | 5 | 360 | 12.9 | 29.0 | 0.00 | 0.00 | 0.00 | 66 | 1006.8 |
| 20260505022536 | 5 | 360 | 14.5 | 25.7 | 0.00 | 0.00 | 0.00 | 65 | 1006.7 |
| 20260505022034 | 5 | 334 | 14.5 | 25.7 | 0.00 | 0.00 | 0.00 | 65 | 1006.4 |
| 20260505021539 | 5 | 302 | 11.3 | 25.7 | 0.00 | 0.00 | 0.00 | 66 | 1006.4 |
| 20260505021032 | 5 | 331 | 11.3 | 19.3 | 0.00 | 0.00 | 0.00 | 65 | 1006.2 |
| 20260505020531 | 5 | 355 | 8.0 | 27.4 | 0.00 | 0.00 | 0.00 | 65 | 1006.1 |
| 20260505020032 | 5 | 304 | 17.7 | 27.4 | 0.00 | 0.00 | 0.00 | 64 | 1006.1 |
| 20260505015530 | 6 | 321 | 14.5 | 24.1 | 0.00 | 0.00 | 0.00 | 64 | 1006.0 |
| 20260505015033 | 6 | 343 | 12.9 | 24.1 | 0.00 | 0.00 | 0.00 | 64 | 1006.0 |
| 20260505014536 | 6 | 349 | 8.0 | 19.3 | 0.00 | 0.00 | 0.00 | 63 | 1005.9 |
| 20260505014026 | 6 | 337 | 9.7 | 20.9 | 0.00 | 0.00 | 0.00 | 62 | 1005.8 |
| 20260505013529 | 6 | 347 | 11.3 | 22.5 | 0.00 | 0.00 | 0.00 | 61 | 1005.7 |
| 20260505013029 | 6 | 19 | 8.0 | 25.7 | 0.00 | 0.00 | 0.00 | 60 | 1005.6 |
| 20260505012525 | 6 | 327 | 16.1 | 25.7 | 0.00 | 0.00 | 0.00 | 59 | 1005.5 |
| 20260505012025 | 6 | 319 | 11.3 | 24.1 | 0.00 | 0.00 | 0.00 | 59 | 1005.4 |
| 20260505011525 | 6 | 35 | 14.5 | 25.7 | 0.00 | 0.00 | 0.00 | 58 | 1005.4 |
| 20260505011023 | 6 | 332 | 16.1 | 27.4 | 0.00 | 0.00 | 0.00 | 57 | 1005.4 |
| 20260505010523 | 7 | 355 | 16.1 | 27.4 | 0.00 | 0.00 | 0.00 | 57 | 1005.4 |
| 20260505010023 | 7 | 336 | 8.0 | 27.4 | 0.00 | 0.00 | 0.00 | 57 | 1005.2 |
| 20260505005523 | 7 | 337 | 11.3 | 27.4 | 0.00 | 0.00 | 0.00 | 58 | 1005.2 |
| 20260505005024 | 7 | 340 | 14.5 | 27.4 | 0.00 | 0.00 | 0.00 | 57 | 1005.1 |
| 20260505004523 | 7 | 355 | 16.1 | 27.4 | 0.00 | 0.00 | 0.00 | 56 | 1005.1 |
| 20260505004021 | 7 | 348 | 11.3 | 33.8 | 0.00 | 0.00 | 0.00 | 55 | 1005.1 |
| 20260505003519 | 7 | 355 | 12.9 | 33.8 | 0.00 | 0.00 | 0.00 | 53 | 1005.0 |
| 20260505003019 | 7 | 337 | 17.7 | 32.2 | 0.00 | 0.00 | 0.00 | 51 | 1005.0 |
| 20260505002519 | 7 | 338 | 19.3 | 32.2 | 0.00 | 0.00 | 0.00 | 48 | 1004.9 |
| 20260505002018 | 7 | 259 | 16.1 | 32.2 | 0.00 | 0.00 | 0.00 | 47 | 1004.8 |
| 20260505001518 | 8 | 355 | 16.1 | 40.2 | 0.00 | 0.00 | 0.00 | 48 | 1004.7 |
| 20260505001017 | 8 | 326 | 25.7 | 40.2 | 0.00 | 0.00 | 0.00 | 47 | 1004.8 |
| 20260505000517 | 8 | 332 | 17.7 | 33.8 | 0.00 | 0.00 | 0.00 | 47 | 1004.7 |
| 20260505000028 | 8 | 309 | 17.7 | 38.6 | 0.00 | 0.00 | 0.00 | 47 | 1004.7 |
| 20260504235517 | 8 | 297 | 22.5 | 38.6 | 0.00 | 0.00 | 0.00 | 46 | 1004.6 |
| 20260504235017 | 8 | 5 | 12.9 | 30.6 | 0.00 | 0.00 | 0.00 | 45 | 1004.6 |
| 20260504234516 | 8 | 323 | 17.7 | 33.8 | 0.00 | 0.00 | 0.00 | 44 | 1004.6 |
| 20260504234017 | 8 | 329 | 17.7 | 38.6 | 0.00 | 0.00 | 0.00 | 44 | 1004.4 |
| 20260504233515 | 8 | 333 | 14.5 | 38.6 | 0.00 | 0.00 | 0.00 | 45 | 1004.5 |
| 20260504233020 | 8 | 346 | 24.1 | 38.6 | 0.00 | 0.00 | 0.00 | 44 | 1004.4 |
| 20260504232515 | 8 | 323 | 19.3 | 37.0 | 0.00 | 0.00 | 0.00 | 44 | 1004.5 |
| 20260504232016 | 8 | 302 | 12.9 | 33.8 | 0.00 | 0.00 | 0.00 | 44 | 1004.4 |
| 20260504231613 | 8 | 306 | 17.7 | 35.4 | 0.00 | 0.00 | 0.00 | 44 | 1004.3 |
| 20260504231014 | 8 | 324 | 17.7 | 43.5 | 0.00 | 0.00 | 0.00 | 44 | 1004.3 |
| 20260504230513 | 8 | 329 | 24.1 | 43.5 | 0.00 | 0.00 | 0.00 | 44 | 1004.1 |
| 20260504230016 | 8 | 310 | 20.9 | 43.5 | 0.00 | 0.00 | 0.00 | 43 | 1004.2 |
| 20260504225512 | 8 | 279 | 22.5 | 40.2 | 0.00 | 0.00 | 0.00 | 44 | 1004.2 |
| 20260504225011 | 8 | 261 | 19.3 | 40.2 | 0.00 | 0.00 | 0.00 | 44 | 1004.2 |